Cloud_Cover
61 81 67 96 68 100 100 96 82 77 56 98 91 46 58 29 40 52 97 100 100 100 100 56 0 3 5 2 4 5 50 88 64 2 0 0 0 0 0 0 0 0 0 0 0 0 28 93 96
28 61 100 99 98 100 100 73 100 41 49 37 85 100 100 100 100 100 100 100 100 100 20 0 1 5 5 5 34 46 100 15 0 2 1 0 0 0 0 0 0 4 0 0 0 1 4 3 0
90 47 91 100 81 95 92 74 17 72 7 74 91 50 54 100 100 100 100 92 74 2 0 0 4 7 5 4 28 26 2 0 0 0 0 0 1 0 0 0 0 0 9 15 1 0 0 0 0
76 31 31 83 100 97 48 86 99 5 54 77 50 35 53 93 97 100 49 3 0 2 5 8 1 0 0 0 0 0 0 0 0 0 0 0 0 0 0 0 0 0 7 9 6 5 0 0 0
51 66 84 100 71 37 71 100 100 100 85 41 46 70 65 58 20 10 25 2 4 2 6 5 0 0 0 0 0 0 0 0 0 0 0 0 0 0 0 2 1 0 13 4 4 0 4 2 0
86 100 100 100 99 98 88 95 73 100 86 56 100 100 100 99 79 76 2 1 0 0 0 0 0 0 0 0 0 0 0 0 0 0 0 0 0 0 0 1 5 5 5 5 2 5 5 5 5
58 100 100 100 100 100 92 82 78 98 82 91 100 100 100 99 60 0 0 0 0 2 0 0 0 0 0 0 0 0 0 0 0 0 1 5 5 3 2 0 0 0 1 5 5 56 11 100 100
6 100 100 100 100 100 100 97 100 100 100 100 100 81 76 1 0 0 0 0 1 17 0 1 0 0 0 0 0 0 0 0 0 0 0 5 5 5 5 0 5 0 0 0 0 14 10 97 100
5 100 100 100 100 100 99 12 13 84 31 55 48 98 5 0 0 0 0 2 4 22 16 11 10 3 1 0 0 0 0 0 1 4 1 22 4 55 4 5 5 5 0 0 0 0 5 5 5
64 100 100 100 100 100 92 25 98 98 13 58 100 66 12 0 0 0 9 17 2 13 42 16 24 21 12 0 0 0 0 0 3 5 2 0 1 0 0 0 3 5 5 3 4 0 23 5 0
59 100 82 100 100 100 90 15 25 98 25 22 5 14 18 0 0 0 0 0 0 1 20 12 19 15 4 0 4 23 13 8 8 2 0 0 0 0 3 0 3 28 65 39 84 6 2 4 3
29 5 90 46 34 95 100 100 100 100 100 24 0 0 0 0 0 0 0 0 0 5 0 0 0 0 3 0 11 11 26 18 20 0 0 0 6 0 0 1 0 54 67 5 2 0 0 2 0
96 5 60 99 100 100 100 100 100 28 5 1 0 0 0 0 0 0 0 0 0 0 0 0 0 0 0 0 4 14 18 3 0 0 0 0 0 0 0 0 0 0 1 8 89 0 0 0 19
8 5 72 54 52 20 44 68 0 0 5 2 0 0 0 0 0 0 0 0 0 0 0 0 0 0 0 0 0 0 0 0 0 3 0 0 0 0 0 0 0 0 45 8 9 28 4 0 19
0 0 3 80 99 97 100 26 5 4 5 59 5 0 0 0 0 0 0 0 0 0 0 0 0 0 0 0 0 0 0 0 42 100 4 19 5 0 34 0 0 0 11 0 0 0 0 0 0
0 0 2 5 5 4 28 3 1 14 36 90 6 0 0 0 0 0 0 0 0 0 0 0 0 0 0 0 0 0 0 0 78 86 34 0 0 5 2 0 0 0 0 58 0 0 11 54 98
0 0 5 5 5 5 4 7 0 5 65 100 39 8 0 0 0 0 0 0 0 0 0 0 0 0 0 0 0 0 0 0 0 0 0 0 0 0 0 0 0 0 0 7 25 1 78 39 4
0 0 5 5 4 10 5 8 4 4 5 28 0 4 0 0 0 0 0 0 0 0 0 0 0 0 0 0 0 0 0 0 0 0 0 0 3 5 89 30 0 0 3 57 34 0 0 0 0
0 0 0 0 2 0 5 4 5 20 3 47 68 0 0 0 0 0 0 0 0 0 0 0 0 0 0 0 0 0 0 0 0 0 0 0 2 3 0 100 6 3 0 4 2 0 0 0 0
0 0 0 3 0 0 0 5 19 5 5 5 42 4 0 0 0 0 0 0 0 0 0 0 0 0 0 0 0 0 0 0 0 0 0 0 0 7 100 39 0 0 0 0 0 0 0 0 0
0 0 0 0 5 0 1 61 59 4 3 4 0 4 0 0 0 0 0 0 0 0 0 0 0 0 0 0 0 0 0 1 0 0 0 0 0 95 85 0 0 0 0 0 0 0 0 0 1
0 0 0 0 4 1 0 69 8 5 1 0 0 0 0 0 0 0 0 0 0 0 0 0 0 0 0 0 0 0 0 0 0 0 0 0 0 32 0 0 0 0 0 0 0 0 0 0 1
0 0 0 0 5 4 2 3 0 5 2 0 0 0 0 0 0 0 0 0 0 0 0 0 0 0 0 0 0 0 0 0 0 0 0 0 0 0 0 0 0 0 0 0 0 0 0 0 0
0 0 0 0 1 2 0 0 5 3 0 0 0 0 0 0 0 0 0 0 0 0 0 0 0 0 0 0 0 0 0 0 0 0 0 1 7 0 0 0 0 0 0 0 0 0 0 0 0
0 0 0 0 0 4 0 0 0 0 1 1 0 5 0 5 1 0 0 0 0 0 0 0 0 0 0 0 0 0 0 0 0 0 0 4 19 10 0 0 0 0 0 0 0 0 0 0 0
0 0 0 0 0 0 0 0 0 0 4 5 5 5 5 2 0 0 0 0 0 0 0 0 0 0 0 0 0 0 0 0 0 0 0 0 0 0 0 0 0 0 0 0 0 0 0 0 0
0 0 0 0 0 0 0 8 0 0 5 5 1 5 0 0 0 0 2 0 0 0 0 0 0 0 0 0 0 0 0 0 0 0 0 0 0 0 0 0 0 0 0 0 0 0 0 0 0
0 0 0 0 0 0 0 4 0 0 0 5 0 0 0 0 5 0 4 5 4 0 0 0 0 0 0 0 0 0 0 0 0 0 0 0 0 0 0 0 0 0 0 0 0 0 0 0 0
0 0 0 0 0 0 1 61 50 1 0 0 0 0 0 0 4 1 5 5 5 5 5 1 1 2 0 0 0 0 0 0 0 0 0 0 0 0 0 0 0 0 0 0 0 0 0 0 0
0 0 0 0 0 0 0 4 5 100 1 0 0 0 0 0 0 10 43 52 84 83 78 68 100 100 88 0 0 0 0 0 0 0 0 0 0 0 0 0 0 0 0 0 2 2 0 0 0